DW5735 Weather Reports


time (UTC)temp
C
wind
direction
speed
KPH
gust
KPH
rain 1hr
cm
rain 24hr
cm
rain mn
cm
humidity
%
barometer
mb
20260506153323 13 246 0.0 0.0 0.00 0.00 0.00 65 1012.5
20260506153136 12 219 0.0 0.0 0.00 0.00 0.00 67 1011.6
20260506152900 13 239 0.0 0.0 0.00 0.00 0.00 67 1012.5
20260506152332 12 242 0.0 1.6 0.00 0.00 0.00 69 1012.5
20260506151823 12 241 0.0 4.8 0.00 0.00 0.00 70 1012.6
20260506151556 12 246 0.0 4.8 0.00 0.00 0.00 69 1011.8
20260506151334 13 243 3.2 4.8 0.00 0.00 0.00 70 1012.7
20260506150825 13 242 0.0 4.8 0.00 0.00 0.00 67 1012.6
20260506150337 13 232 0.0 4.8 0.00 0.00 0.00 65 1012.6
20260506145838 13 340 0.0 0.0 0.00 0.00 0.00 61 1012.7
20260506145320 13 15 0.0 0.0 0.00 0.00 0.00 60 1012.6
20260506144857 13 9 0.0 0.0 0.00 0.00 0.00 60 1012.6
20260506144508 13 26 0.0 0.0 0.00 0.00 0.00 61 1011.8
20260506144318 13 27 0.0 0.0 0.00 0.00 0.00 60 1012.6
20260506143820 12 27 0.0 0.0 0.00 0.00 0.00 62 1012.6
20260506143330 12 31 0.0 0.0 0.00 0.00 0.00 63 1012.7
20260506143111 12 50 0.0 0.0 0.00 0.00 0.00 66 1011.9
20260506142821 12 27 0.0 0.0 0.00 0.00 0.00 67 1012.7
20260506142346 12 34 0.0 0.0 0.00 0.00 0.00 63 1012.7
20260506141838 12 34 0.0 0.0 0.00 0.00 0.00 66 1012.8
20260506141608 11 36 0.0 0.0 0.00 0.00 0.00 67 1012.0
20260506141319 12 27 0.0 0.0 0.00 0.00 0.00 64 1012.9
20260506140838 12 29 0.0 0.0 0.00 0.00 0.00 63 1012.9
20260506140348 12 40 0.0 0.0 0.00 0.00 0.00 59 1012.9
20260506140059 12 40 0.0 0.0 0.00 0.00 0.00 59 1012.1
20260506135836 13 42 0.0 0.0 0.00 0.00 0.00 57 1012.8
20260506135340 13 142 0.0 0.0 0.00 0.00 0.00 58 1012.7
20260506134833 13 231 0.0 0.0 0.00 0.00 0.00 60 1012.8
20260506134604 12 231 0.0 0.0 0.00 0.00 0.00 61 1012.0
20260506134351 12 231 0.0 0.0 0.00 0.00 0.00 62 1012.7
20260506133820 12 232 0.0 0.0 0.00 0.00 0.00 65 1012.7
20260506133346 12 233 0.0 0.0 0.00 0.00 0.00 63 1012.6
20260506133112 12 262 0.0 0.0 0.00 0.00 0.00 61 1011.8
20260506132830 12 236 0.0 0.0 0.00 0.00 0.00 59 1012.5
20260506132349 12 64 0.0 0.0 0.00 0.00 0.00 59 1012.4
20260506131854 11 84 0.0 0.0 0.00 0.00 0.00 60 1012.4
20260506131608 11 80 0.0 0.0 0.00 0.00 0.00 61 1011.5
20260506131328 11 60 0.0 0.0 0.00 0.00 0.00 61 1012.3
20260506130826 11 89 0.0 0.0 0.00 0.00 0.00 62 1012.3
20260506130324 11 89 0.0 0.0 0.00 0.00 0.00 64 1012.2
20260506130056 11 89 0.0 0.0 0.00 0.00 0.00 64 1011.4
20260506125830 11 89 0.0 0.0 0.00 0.00 0.00 61 1012.2
20260506125356 10 89 0.0 0.0 0.00 0.00 0.00 61 1012.2
20260506124838 10 80 0.0 0.0 0.00 0.00 0.00 61 1012.2
20260506124612 10 80 0.0 0.0 0.00 0.00 0.00 62 1011.3
20260506124318 10 79 0.0 0.0 0.00 0.00 0.00 64 1012.2
20260506123822 10 79 0.0 0.0 0.00 0.00 0.00 63 1012.1
20260506123330 11 66 0.0 0.0 0.00 0.00 0.00 64 1012.0
20260506123114 11 43 0.0 0.0 0.00 0.00 0.00 64 1011.1
20260506122829 11 75 0.0 0.0 0.00 0.00 0.00 60 1012.0
20260506122327 11 76 0.0 0.0 0.00 0.00 0.00 57 1012.0
20260506121858 11 70 0.0 0.0 0.00 0.00 0.00 58 1011.9
20260506121615 11 60 0.0 0.0 0.00 0.00 0.00 59 1011.0
20260506121319 11 46 0.0 0.0 0.00 0.00 0.00 59 1011.9
20260506120839 11 37 0.0 0.0 0.00 0.00 0.00 59 1011.8
20260506120325 11 37 0.0 0.0 0.00 0.00 0.00 60 1011.8
20260506120101 11 52 0.0 0.0 0.00 0.00 0.00 59 1011.0
20260506115832 11 86 0.0 0.0 0.00 0.00 0.00 59 1011.8
20260506115339 11 84 0.0 0.0 0.00 0.00 0.00 59 1011.9
20260506114856 11 90 0.0 0.0 0.00 0.00 0.00 61 1011.8
20260506114600 11 47 0.0 0.0 0.00 0.00 0.00 65 1011.0
20260506114322 11 25 0.0 0.0 0.00 0.00 0.00 58 1011.8
20260506113852 12 23 0.0 0.0 0.00 0.00 0.00 60 1011.7
20260506113341 12 88 0.0 0.0 0.00 0.00 0.00 56 1011.7
20260506113101 12 40 0.0 0.0 0.00 0.00 0.00 55 1010.9
20260506112851 12 91 0.0 0.0 0.00 0.00 0.00 54 1011.8
20260506112334 12 91 0.0 0.0 0.00 0.00 0.00 54 1011.8
20260506111830 12 56 0.0 0.0 0.00 0.00 0.00 54 1011.8
20260506111555 12 56 0.0 0.0 0.00 0.00 0.00 54 1010.9
20260506111357 12 56 0.0 3.2 0.00 0.00 0.00 54 1011.7
20260506110846 12 79 0.0 4.8 0.00 0.00 0.00 54 1011.7
20260506110347 12 96 0.0 4.8 0.00 0.00 0.00 54 1011.6
20260506110106 12 105 0.0 0.0 0.00 0.00 0.00 54 1010.8
20260506105856 12 93 0.0 0.0 0.00 0.00 0.00 53 1011.6
20260506105331 12 85 0.0 0.0 0.00 0.00 0.00 53 1011.4
20260506104835 12 84 0.0 0.0 0.00 0.00 0.00 53 1011.4
20260506104609 12 89 0.0 0.0 0.00 0.00 0.00 53 1010.6
20260506104320 12 72 0.0 0.0 0.00 0.00 0.00 53 1011.4
20260506103822 12 43 0.0 0.0 0.00 0.00 0.00 53 1011.4
20260506103339 13 82 0.0 0.0 0.00 0.00 0.00 51 1011.3
20260506103104 12 89 0.0 0.0 0.00 0.00 0.00 51 1010.5
20260506102831 13 89 0.0 0.0 0.00 0.00 0.00 52 1011.4
20260506102319 12 96 0.0 0.0 0.00 0.00 0.00 52 1011.3
20260506101826 12 94 0.0 0.0 0.00 0.00 0.00 54 1011.4
20260506101637 12 91 0.0 0.0 0.00 0.00 0.00 55 1010.5
20260506101321 12 85 0.0 0.0 0.00 0.00 0.00 54 1011.3
20260506100840 12 86 0.0 0.0 0.00 0.00 0.00 56 1011.2
20260506100349 12 84 0.0 0.0 0.00 0.00 0.00 55 1011.2
20260506100003 12 85 0.0 0.0 0.00 0.00 0.00 55 1010.3
20260506095826 12 84 0.0 0.0 0.00 0.00 0.00 55 1011.0
20260506095341 12 280 0.0 0.0 0.00 0.00 0.00 56 1011.1
20260506094849 12 280 0.0 0.0 0.00 0.00 0.00 61 1011.0
20260506094608 12 279 0.0 0.0 0.00 0.00 0.00 59 1010.1
20260506094345 12 99 0.0 0.0 0.00 0.00 0.00 54 1010.9
20260506093818 12 103 0.0 0.0 0.00 0.00 0.00 55 1010.9
20260506093336 12 103 0.0 0.0 0.00 0.00 0.00 55 1010.9
20260506092826 13 120 0.0 0.0 0.00 0.00 0.00 57 1010.8
20260506092317 13 150 0.0 0.0 0.00 0.00 0.00 59 1010.8
20260506091846 13 228 0.0 0.0 0.00 0.00 0.00 59 1010.8
20260506091602 13 228 0.0 0.0 0.00 0.00 0.00 59 1010.0
20260506091342 13 219 0.0 0.0 0.00 0.00 0.00 54 1010.8
20260506090820 13 111 0.0 0.0 0.00 0.00 0.00 50 1010.8
20260506090324 13 91 0.0 0.0 0.00 0.00 0.00 51 1010.8
20260506090112 13 98 0.0 0.0 0.00 0.00 0.00 54 1010.0
20260506085830 13 116 0.0 0.0 0.00 0.00 0.00 49 1010.8
20260506085347 13 77 0.0 0.0 0.00 0.00 0.00 50 1010.7
20260506084823 13 98 0.0 0.0 0.00 0.00 0.00 52 1010.8
20260506084634 13 97 0.0 0.0 0.00 0.00 0.00 53 1009.9
20260506084337 13 101 0.0 0.0 0.00 0.00 0.00 52 1010.8
20260506083846 13 99 0.0 0.0 0.00 0.00 0.00 55 1010.8
20260506083327 13 94 0.0 0.0 0.00 0.00 0.00 57 1010.8
20260506083104 13 277 0.0 0.0 0.00 0.00 0.00 61 1010.0
20260506082822 14 282 0.0 0.0 0.00 0.00 0.00 51 1010.8
20260506082327 14 112 0.0 0.0 0.00 0.00 0.00 48 1010.8
20260506081820 14 103 0.0 0.0 0.00 0.00 0.00 49 1010.7
20260506081501 13 49 0.0 0.0 0.00 0.00 0.00 50 1009.9
20260506081326 14 47 0.0 0.0 0.00 0.00 0.00 49 1010.7
20260506080829 13 86 0.0 0.0 0.00 0.00 0.00 51 1010.6
20260506080324 13 108 0.0 0.0 0.00 0.00 0.00 52 1010.6
20260506080107 13 93 0.0 0.0 0.00 0.00 0.00 52 1009.8
20260506073337 14 125 0.0 0.0 0.00 0.00 0.00 51 1010.6
20260506073108 13 215 0.0 0.0 0.00 0.00 0.00 51 1009.7
20260506072825 14 215 0.0 0.0 0.00 0.00 0.00 51 1010.6
20260506072337 14 180 0.0 0.0 0.00 0.00 0.00 54 1010.5
20260506071836 14 233 0.0 0.0 0.00 0.00 0.00 53 1010.5
20260506071327 15 98 0.0 0.0 0.00 0.00 0.00 49 1010.4
20260506070834 15 98 0.0 0.0 0.00 0.00 0.00 48 1010.4
20260506070332 15 96 0.0 0.0 0.00 0.00 0.00 49 1010.4
20260506062351 15 82 0.0 0.0 0.00 0.00 0.00 49 1009.9
20260506061830 15 82 0.0 0.0 0.00 0.00 0.00 50 1009.8
20260506061508 15 82 0.0 0.0 0.00 0.00 0.00 49 1008.8
20260506061329 16 80 0.0 0.0 0.00 0.00 0.00 50 1009.7
20260506060834 15 80 0.0 0.0 0.00 0.00 0.00 49 1009.7
20260506060329 15 91 0.0 0.0 0.00 0.00 0.00 55 1009.7
20260506051318 16 89 0.0 0.0 0.00 0.00 0.00 51 1009.6
20260506050832 16 358 0.0 0.0 0.00 0.00 0.00 48 1009.6
20260506050335 16 95 0.0 0.0 0.00 0.00 0.00 46 1009.5
20260506044832 17 39 0.0 0.0 0.00 0.00 0.00 44 1009.4
20260506044555 17 32 0.0 0.0 0.00 0.00 0.00 45 1008.3
20260506044321 17 48 0.0 0.0 0.00 0.00 0.00 42 1009.3
20260506043820 18 96 0.0 0.0 0.00 0.00 0.00 43 1009.2
20260506043320 18 96 0.0 0.0 0.00 0.00 0.00 45 1009.2
20260506043103 18 98 0.0 0.0 0.00 0.00 0.00 45 1008.2
20260506042836 18 76 0.0 1.6 0.00 0.00 0.00 46 1009.2
20260506042318 18 100 0.0 1.6 0.00 0.00 0.00 47 1009.2
20260506041833 18 27 0.0 0.0 0.00 0.00 0.00 50 1009.2
20260506041508 19 226 0.0 0.0 0.00 0.00 0.00 40 1008.2
20260506041331 19 124 0.0 1.6 0.00 0.00 0.00 38 1009.1
20260506040831 20 133 0.0 1.6 0.00 0.00 0.00 38 1009.0
20260506040321 19 143 0.0 0.0 0.00 0.00 0.00 39 1008.8
20260506040101 18 95 0.0 0.0 0.00 0.00 0.00 40 1007.8
20260506035836 19 99 0.0 0.0 0.00 0.00 0.00 40 1008.9
20260506035328 19 34 0.0 0.0 0.00 0.00 0.00 43 1008.8
20260506034822 20 105 0.0 0.0 0.00 0.00 0.00 42 1008.8
20260506034505 19 82 0.0 1.6 0.00 0.00 0.00 44 1007.8
20260506034327 20 83 0.0 1.6 0.00 0.00 0.00 45 1008.7
20260506033840 21 338 0.0 0.0 0.00 0.00 0.00 34 1008.6
20260506033339 21 48 0.0 1.6 0.00 0.00 0.00 35 1008.6
20260506033007 21 47 0.0 1.6 0.00 0.00 0.00 35 1007.6
20260506032829 22 129 0.0 1.6 0.00 0.00 0.00 30 1008.6
20260506032333 22 210 0.0 3.2 0.00 0.00 0.00 32 1008.5
20260506031821 22 232 0.0 1.6 0.00 0.00 0.00 31 1008.5
20260506031607 22 239 0.0 1.6 0.00 0.00 0.00 30 1007.5
20260506031346 22 218 0.0 1.6 0.00 0.00 0.00 30 1008.5
20260506030842 23 201 0.0 1.6 0.00 0.00 0.00 31 1008.4
20260506030352 23 252 0.0 1.6 0.00 0.00 0.00 29 1008.4
20260506030059 23 205 0.0 1.6 0.00 0.00 0.00 28 1007.4
20260506025824 23 158 0.0 3.2 0.00 0.00 0.00 28 1008.4
20260506025320 23 218 0.0 4.8 0.00 0.00 0.00 31 1008.4
20260506024818 24 210 0.0 4.8 0.00 0.00 0.00 28 1008.4
20260506024609 24 206 1.6 4.8 0.00 0.00 0.00 28 1007.5
20260506024322 25 229 0.0 3.2 0.00 0.00 0.00 30 1008.4
20260506023834 25 139 0.0 3.2 0.00 0.00 0.00 29 1008.4
20260506023343 26 203 0.0 4.8 0.00 0.00 0.00 26 1008.4
20260506023113 26 186 0.0 4.8 0.00 0.00 0.00 27 1007.3
20260506022824 27 218 3.2 4.8 0.00 0.00 0.00 26 1008.5
20260506022357 27 229 0.0 1.6 0.00 0.00 0.00 25 1008.5
20260506021832 27 242 0.0 0.0 0.00 0.00 0.00 24 1008.5
20260506021553 27 235 0.0 0.0 0.00 0.00 0.00 24 1007.5
20260506021333 27 226 0.0 0.0 0.00 0.00 0.00 24 1008.5
20260506020848 27 296 0.0 0.0 0.00 0.00 0.00 25 1008.5
20260506020407 27 296 0.0 1.6 0.00 0.00 0.00 25 1008.5
20260506020057 26 297 0.0 1.6 0.00 0.00 0.00 27 1007.6
20260506015835 27 297 0.0 1.6 0.00 0.00 0.00 27 1008.5
20260506015330 26 318 0.0 0.0 0.00 0.00 0.00 26 1008.6
20260506014824 26 326 0.0 1.6 0.00 0.00 0.00 28 1008.7
20260506014608 25 326 0.0 1.6 0.00 0.00 0.00 28 1007.7
20260506014325 25 43 0.0 1.6 0.00 0.00 0.00 26 1008.8
20260506013326 25 16 1.6 4.8 0.00 0.00 0.00 26 1008.7
20260506013057 25 21 0.0 4.8 0.00 0.00 0.00 26 1007.7
20260506012833 25 31 0.0 4.8 0.00 0.00 0.00 26 1008.7
20260506012334 25 16 1.6 4.8 0.00 0.00 0.00 27 1008.7
20260506011831 25 19 3.2 4.8 0.00 0.00 0.00 27 1008.7
20260506011607 24 357 0.0 4.8 0.00 0.00 0.00 26 1007.7
20260506011327 25 359 1.6 4.8 0.00 0.00 0.00 32 1008.8
20260506010825 25 47 1.6 3.2 0.00 0.00 0.00 27 1008.8
20260506010329 25 41 0.0 6.4 0.00 0.00 0.00 25 1008.8
20260506010057 25 40 0.0 6.4 0.00 0.00 0.00 26 1007.9
20260506005822 25 37 4.8 6.4 0.00 0.00 0.00 25 1008.9
20260506005344 25 30 1.6 4.8 0.00 0.00 0.00 25 1008.9
20260506004824 25 29 0.0 4.8 0.00 0.00 0.00 23 1009.1
20260506004600 25 29 1.6 4.8 0.00 0.00 0.00 23 1008.1
20260506004327 25 29 4.8 4.8 0.00 0.00 0.00 25 1009.1
20260506003850 25 26 3.2 4.8 0.00 0.00 0.00 30 1009.1
20260506003328 25 36 3.2 6.4 0.00 0.00 0.00 27 1009.1
20260506003057 25 11 3.2 6.4 0.00 0.00 0.00 25 1008.1
20260506002838 25 34 4.8 6.4 0.00 0.00 0.00 28 1009.2
20260506002324 26 15 1.6 9.7 0.00 0.00 0.00 23 1009.2
20260506001824 26 21 4.8 11.3 0.00 0.00 0.00 23 1009.3
20260506001607 26 26 1.6 12.9 0.00 0.00 0.00 23 1008.3
20260506001338 26 56 4.8 16.1 0.00 0.00 0.00 22 1009.4
20260506000837 26 56 11.3 16.1 0.00 0.00 0.00 23 1009.4
20260506000335 26 29 6.4 17.7 0.00 0.00 0.00 22 1009.5
20260506000104 25 31 6.4 17.7 0.00 0.00 0.00 24 1008.6
20260505235839 25 43 11.3 12.9 0.00 0.00 0.00 28 1009.6
20260505235344 26 25 3.2 12.9 0.00 0.00 0.00 25 1009.6
20260505234839 26 111 6.4 9.7 0.00 0.00 0.00 23 1009.7
20260505234602 26 41 3.2 12.9 0.00 0.00 0.00 24 1008.6
20260505234341 26 66 3.2 12.9 0.00 0.00 0.00 23 1009.7
20260505233836 25 26 9.7 14.5 0.00 0.00 0.00 24 1009.7
20260505233322 25 32 9.7 16.1 0.00 0.00 0.00 25 1009.8
20260505232820 26 46 9.7 17.7 0.00 0.00 0.00 24 1009.8
20260505232318 26 51 4.8 17.7 0.00 0.00 0.00 22 1009.9
20260505231844 26 32 6.4 17.7 0.00 0.00 0.00 23 1009.9
20260505231612 25 58 6.4 17.7 0.00 0.00 0.00 23 1009.0
20260505231326 26 23 6.4 16.1 0.00 0.00 0.00 23 1010.1
20260505230829 25 25 9.7 16.1 0.00 0.00 0.00 23 1010.1
20260505230321 25 51 4.8 16.1 0.00 0.00 0.00 24 1010.1
20260505230122 25 94 9.7 16.1 0.00 0.00 0.00 24 1009.2
20260505225818 25 30 9.7 16.1 0.00 0.00 0.00 24 1010.2
20260505225320 25 60 11.3 16.1 0.00 0.00 0.00 25 1010.2
20260505224818 25 39 9.7 14.5 0.00 0.00 0.00 26 1010.3
20260505224520 25 33 6.4 16.1 0.00 0.00 0.00 25 1009.3
20260505224343 25 23 6.4 17.7 0.00 0.00 0.00 25 1010.4
20260505223819 25 48 12.9 17.7 0.00 0.00 0.00 27 1010.4
20260505223347 24 32 6.4 17.7 0.00 0.00 0.00 26 1010.5
20260505223116 23 36 6.4 17.7 0.00 0.00 0.00 29 1009.5
20260505222827 24 16 12.9 17.7 0.00 0.00 0.00 26 1010.5
20260505222325 25 48 3.2 9.7 0.00 0.00 0.00 28 1010.6
20260505221825 25 321 1.6 20.9 0.00 0.00 0.00 26 1010.7
20260505221508 24 358 8.0 20.9 0.00 0.00 0.00 27 1009.7
20260505221332 24 46 11.3 20.9 0.00 0.00 0.00 27 1010.7
20260505220841 23 221 0.0 3.2 0.00 0.00 0.00 31 1010.7
20260505220326 23 259 0.0 4.8 0.00 0.00 0.00 30 1010.9
20260505220103 22 211 1.6 6.4 0.00 0.00 0.00 32 1009.9
20260505215848 23 299 3.2 8.0 0.00 0.00 0.00 33 1010.9
20260505215349 23 271 3.2 9.7 0.00 0.00 0.00 32 1011.0
20260505214844 23 177 6.4 9.7 0.00 0.00 0.00 34 1010.9
20260505214505 23 211 3.2 4.8 0.00 0.00 0.00 32 1010.0
20260505214325 23 252 3.2 4.8 0.00 0.00 0.00 29 1011.0
20260505213836 23 215 3.2 6.4 0.00 0.00 0.00 32 1011.2
20260505213330 22 253 4.8 6.4 0.00 0.00 0.00 29 1011.2
20260505213108 22 238 3.2 6.4 0.00 0.00 0.00 30 1010.4
20260505212827 22 200 3.2 6.4 0.00 0.00 0.00 31 1011.4
20260505212326 21 203 3.2 6.4 0.00 0.00 0.00 34 1011.5
20260505211824 21 228 6.4 6.4 0.00 0.00 0.00 41 1011.6
20260505211319 22 226 4.8 6.4 0.00 0.00 0.00 34 1011.6
20260505210822 23 242 1.6 3.2 0.00 0.00 0.00 31 1011.7
20260505210334 22 248 0.0 4.8 0.00 0.00 0.00 32 1011.8
20260505210106 22 155 0.0 4.8 0.00 0.00 0.00 30 1010.8
20260505205828 22 246 1.6 4.8 0.00 0.00 0.00 31 1011.9
20260505205336 22 230 3.2 6.4 0.00 0.00 0.00 33 1011.9
20260505204838 21 232 6.4 6.4 0.00 0.00 0.00 33 1011.9
20260505204610 21 236 6.4 8.0 0.00 0.00 0.00 34 1011.0
20260505204331 22 218 6.4 6.4 0.00 0.00 0.00 34 1012.1
20260505203829 21 222 4.8 8.0 0.00 0.00 0.00 32 1012.2
20260505203338 21 222 4.8 8.0 0.00 0.00 0.00 33 1012.2
20260505203109 21 228 4.8 8.0 0.00 0.00 0.00 33 1011.2
20260505202834 21 226 6.4 8.0 0.00 0.00 0.00 35 1012.2
20260505202321 21 229 6.4 8.0 0.00 0.00 0.00 33 1012.3
20260505201819 21 201 3.2 8.0 0.00 0.00 0.00 33 1012.3
20260505201553 21 222 4.8 9.7 0.00 0.00 0.00 32 1011.4
20260505201334 21 217 4.8 11.3 0.00 0.00 0.00 33 1012.4
20260505200825 21 210 8.0 12.9 0.00 0.00 0.00 35 1012.5
20260505200329 21 222 9.7 12.9 0.00 0.00 0.00 36 1012.6
20260505200110 20 228 6.4 11.3 0.00 0.00 0.00 38 1011.6
20260505195836 21 222 8.0 9.7 0.00 0.00 0.00 35 1012.6
20260505195322 21 232 8.0 11.3 0.00 0.00 0.00 35 1012.7
20260505194830 20 236 9.7 11.3 0.00 0.00 0.00 35 1012.8
20260505194515 20 238 8.0 11.3 0.00 0.00 0.00 36 1011.9
20260505194338 20 235 8.0 11.3 0.00 0.00 0.00 36 1012.8
20260505193817 19 225 9.7 11.3 0.00 0.00 0.00 39 1012.9
20260505193332 19 229 8.0 9.7 0.00 0.00 0.00 41 1013.0
20260505193103 19 228 3.2 9.7 0.00 0.00 0.00 41 1012.1
20260505192833 19 226 6.4 11.3 0.00 0.00 0.00 40 1013.0
20260505192346 19 207 8.0 12.9 0.00 0.00 0.00 39 1013.1
20260505191900 18 219 8.0 12.9 0.00 0.00 0.00 42 1013.1
20260505191502 18 231 8.0 11.3 0.00 0.00 0.00 44 1012.2
20260505191327 19 238 11.3 11.3 0.00 0.00 0.00 39 1013.2
20260505190834 19 214 6.4 9.7 0.00 0.00 0.00 40 1013.2
20260505190341 18 214 6.4 9.7 0.00 0.00 0.00 39 1013.3
20260505185830 18 225 8.0 8.0 0.00 0.00 0.00 40 1013.4
20260505185333 17 210 6.4 8.0 0.00 0.00 0.00 44 1013.4
20260505184830 18 214 6.4 8.0 0.00 0.00 0.00 43 1013.5
20260505184557 17 239 6.4 8.0 0.00 0.00 0.00 41 1012.5
20260505184329 17 239 8.0 9.7 0.00 0.00 0.00 41 1013.5
20260505183824 17 236 6.4 9.7 0.00 0.00 0.00 45 1013.6
20260505183115 17 235 8.0 9.7 0.00 0.00 0.00 40 1012.7
20260505182826 18 242 8.0 9.7 0.00 0.00 0.00 40 1013.8
20260505182401 17 246 4.8 8.0 0.00 0.00 0.00 43 1013.8
20260505181848 17 225 4.8 8.0 0.00 0.00 0.00 44 1013.9
20260505181557 16 221 6.4 8.0 0.00 0.00 0.00 45 1012.9
20260505181324 17 219 4.8 6.4 0.00 0.00 0.00 48 1013.9
20260505180849 16 236 3.2 6.4 0.00 0.00 0.00 49 1013.9
20260505180324 16 225 3.2 6.4 0.00 0.00 0.00 48 1013.9
20260505180056 16 226 1.6 6.4 0.00 0.00 0.00 52 1013.0
20260505175834 16 235 4.8 6.4 0.00 0.00 0.00 51 1014.0
20260505175322 16 228 1.6 4.8 0.00 0.00 0.00 50 1014.0
20260505174850 15 226 1.6 4.8 0.00 0.00 0.00 52 1014.1
20260505174606 15 214 0.0 4.8 0.00 0.00 0.00 52 1013.1
20260505174318 15 222 1.6 4.8 0.00 0.00 0.00 54 1014.1
20260505173832 15 216 1.6 4.8 0.00 0.00 0.00 57 1014.2
20260505173331 15 231 1.6 6.4 0.00 0.00 0.00 57 1014.2
20260505173016 14 235 1.6 4.8 0.00 0.00 0.00 57 1013.2
20260505172837 15 249 3.2 4.8 0.00 0.00 0.00 56 1014.3
20260505172340 15 229 0.0 3.2 0.00 0.00 0.00 56 1014.3
20260505171511 13 236 0.0 4.8 0.00 0.00 0.00 58 1013.4
20260505171336 14 242 1.6 4.8 0.00 0.00 0.00 57 1014.4
20260505170821 13 185 0.0 4.8 0.00 0.00 0.00 59 1014.5
20260505170334 14 217 1.6 4.8 0.00 0.00 0.00 59 1014.4
20260505170114 14 213 0.0 3.2 0.00 0.00 0.00 57 1013.5
20260505165904 15 228 0.0 3.2 0.00 0.00 0.00 57 1014.5
20260505165336 14 232 0.0 4.8 0.00 0.00 0.00 57 1014.5
20260505164836 14 225 0.0 4.8 0.00 0.00 0.00 57 1014.5
20260505164351 13 218 0.0 6.4 0.00 0.00 0.00 58 1014.5
20260505163832 13 214 3.2 6.4 0.00 0.00 0.00 59 1014.5
20260505163340 13 219 3.2 6.4 0.00 0.00 0.00 60 1014.5
20260505163105 13 212 3.2 6.4 0.00 0.00 0.00 61 1013.5
20260505162826 13 235 4.8 6.4 0.00 0.00 0.00 60 1014.6
20260505162323 13 226 3.2 6.4 0.00 0.00 0.00 63 1014.6
20260505161818 13 221 1.6 4.8 0.00 0.00 0.00 63 1014.6
20260505161611 12 225 1.6 6.4 0.00 0.00 0.00 64 1013.6
20260505161329 13 246 1.6 6.4 0.00 0.00 0.00 65 1014.5
20260505160824 13 243 1.6 6.4 0.00 0.00 0.00 62 1014.6
20260505160323 12 235 1.6 4.8 0.00 0.00 0.00 65 1014.6